Volver al catálogo

DELTA 1 R/B(2)

ActivoGTO
NORAD 1318·ROCKET BODY·🇺🇸 United States

Lanzado Apr 6, 1965 desde Cape Canaveral Space Force Station

Loading…

TLE

EnvejeciendoSource: Space-Track

Época: Sep 14, 2026, 18:46 UTC

1 01318U 65028B   26257.78194764 -.00000035  00000-0  00000-0 0  9991
2 01318  17.4005 241.3683 6956892 196.7862 108.5743  2.11826232109222

Sigue DELTA 1 R/B(2) en tiempo real con AllMySat

Download on the App Store